Wetterdaten: Sonntag, 11.06.2017
Datum Zeit Temp. Auen Feucht Auen Luftdruck Regen Richtung Richtung Windben
11.06.2017 00:00 12,3 C 88 % 1021,7 hPa 0,0 mm N-NW 329 0,0 km/h (0 Bft)
11.06.2017 00:05 12,2 C 87 % 1021,7 hPa 0,0 mm N-NW 329 0,0 km/h (0 Bft)
11.06.2017 00:10 11,9 C 88 % 1021,8 hPa 0,0 mm N-NW 329 0,0 km/h (0 Bft)
11.06.2017 00:15 11,9 C 89 % 1021,7 hPa 0,0 mm N-NW 329 0,0 km/h (0 Bft)
11.06.2017 00:20 11,8 C 89 % 1021,7 hPa 0,0 mm N-NW 329 1,6 km/h (1 Bft)
11.06.2017 00:25 11,8 C 89 % 1021,7 hPa 0,0 mm N-NW 329 1,6 km/h (1 Bft)
11.06.2017 00:30 11,8 C 89 % 1021,8 hPa 0,0 mm N-NW 329 1,6 km/h (1 Bft)
11.06.2017 00:35 11,8 C 89 % 1021,7 hPa 0,0 mm N-NW 329 3,2 km/h (1 Bft)
11.06.2017 00:40 11,9 C 89 % 1021,7 hPa 0,0 mm N-NW 329 1,6 km/h (1 Bft)
11.06.2017 00:45 12,0 C 89 % 1021,7 hPa 0,0 mm N-NW 329 3,2 km/h (1 Bft)
11.06.2017 00:50 11,9 C 88 % 1021,7 hPa 0,0 mm N-NW 329 3,2 km/h (1 Bft)
11.06.2017 00:55 11,8 C 88 % 1021,7 hPa 0,0 mm N-NW 329 1,6 km/h (1 Bft)
11.06.2017 01:00 11,7 C 89 % 1021,6 hPa 0,0 mm N-NW 329 3,2 km/h (1 Bft)
11.06.2017 01:05 11,7 C 89 % 1021,6 hPa 0,0 mm N-NW 329 3,2 km/h (1 Bft)
11.06.2017 01:10 11,7 C 88 % 1021,6 hPa 0,0 mm N-NW 329 1,6 km/h (1 Bft)
11.06.2017 01:15 11,7 C 88 % 1021,7 hPa 0,0 mm NW 323 3,2 km/h (1 Bft)
11.06.2017 01:20 11,7 C 88 % 1021,7 hPa 0,0 mm NW 323 3,2 km/h (1 Bft)
11.06.2017 01:25 11,4 C 88 % 1021,7 hPa 0,0 mm NW 323 3,2 km/h (1 Bft)
11.06.2017 01:30 11,3 C 89 % 1021,7 hPa 0,0 mm NW 323 1,6 km/h (1 Bft)
11.06.2017 01:35 11,3 C 89 % 1021,7 hPa 0,0 mm NW 323 1,6 km/h (1 Bft)
11.06.2017 01:40 11,3 C 89 % 1021,7 hPa 0,0 mm NW 323 1,6 km/h (1 Bft)
11.06.2017 01:45 11,3 C 89 % 1021,6 hPa 0,0 mm NW 323 1,6 km/h (1 Bft)
11.06.2017 01:50 11,2 C 89 % 1021,7 hPa 0,0 mm NW 323 1,6 km/h (1 Bft)
11.06.2017 01:55 11,2 C 89 % 1021,6 hPa 0,0 mm NW 323 3,2 km/h (1 Bft)
11.06.2017 02:00 11,2 C 89 % 1021,6 hPa 0,0 mm NW 323 1,6 km/h (1 Bft)
11.06.2017 02:05 11,1 C 89 % 1021,6 hPa 0,0 mm NW 323 1,6 km/h (1 Bft)
11.06.2017 02:10 11,1 C 89 % 1021,7 hPa 0,0 mm NW 323 3,2 km/h (1 Bft)
11.06.2017 02:15 10,9 C 89 % 1021,8 hPa 0,0 mm NW 323 1,6 km/h (1 Bft)
11.06.2017 02:20 10,7 C 89 % 1021,8 hPa 0,0 mm NW 323 1,6 km/h (1 Bft)
11.06.2017 02:25 10,7 C 90 % 1021,8 hPa 0,0 mm NW 323 1,6 km/h (1 Bft)
11.06.2017 02:30 10,6 C 90 % 1021,8 hPa 0,0 mm NW 323 0,0 km/h (0 Bft)
11.06.2017 02:35 10,5 C 90 % 1021,8 hPa 0,0 mm NW 323 0,0 km/h (0 Bft)
11.06.2017 02:40 10,4 C 90 % 1021,9 hPa 0,0 mm NW 323 3,2 km/h (1 Bft)
11.06.2017 02:45 10,4 C 90 % 1021,8 hPa 0,0 mm NW 317 3,2 km/h (1 Bft)
11.06.2017 02:50 10,4 C 90 % 1021,9 hPa 0,0 mm NW 317 1,6 km/h (1 Bft)
11.06.2017 02:55 10,4 C 91 % 1021,9 hPa 0,0 mm NW 317 0,0 km/h (0 Bft)
11.06.2017 03:00 10,3 C 90 % 1021,9 hPa 0,0 mm NW 317 0,0 km/h (0 Bft)
11.06.2017 03:05 10,3 C 91 % 1021,9 hPa 0,0 mm NW 317 0,0 km/h (0 Bft)
11.06.2017 03:10 10,3 C 91 % 1021,9 hPa 0,0 mm NW 317 0,0 km/h (0 Bft)
11.06.2017 03:15 10,0 C 90 % 1021,9 hPa 0,0 mm NW 317 0,0 km/h (0 Bft)
11.06.2017 03:20 9,9 C 91 % 1021,9 hPa 0,0 mm NW 317 0,0 km/h (0 Bft)
11.06.2017 03:25 9,8 C 91 % 1022,0 hPa 0,0 mm NW 317 0,0 km/h (0 Bft)
11.06.2017 03:30 9,9 C 91 % 1021,9 hPa 0,0 mm NW 317 0,0 km/h (0 Bft)
11.06.2017 03:35 10,0 C 91 % 1021,8 hPa 0,0 mm NW 317 1,6 km/h (1 Bft)
11.06.2017 03:40 10,0 C 91 % 1021,8 hPa 0,0 mm NW 317 1,6 km/h (1 Bft)
11.06.2017 03:45 9,9 C 91 % 1021,8 hPa 0,0 mm NW 317 1,6 km/h (1 Bft)
11.06.2017 03:50 9,8 C 91 % 1021,8 hPa 0,0 mm NW 317 0,0 km/h (0 Bft)
11.06.2017 03:55 9,6 C 91 % 1021,7 hPa 0,0 mm NW 317 1,6 km/h (1 Bft)
11.06.2017 04:00 9,7 C 91 % 1021,6 hPa 0,0 mm W-NW 300 4,8 km/h (1 Bft)
11.06.2017 04:05 9,8 C 92 % 1021,6 hPa 0,0 mm W-NW 300 3,2 km/h (1 Bft)
11.06.2017 04:10 9,9 C 91 % 1021,6 hPa 0,0 mm W-NW 300 0,0 km/h (0 Bft)
11.06.2017 04:15 9,7 C 91 % 1021,7 hPa 0,0 mm W-NW 300 0,0 km/h (0 Bft)
11.06.2017 04:20 9,6 C 91 % 1021,7 hPa 0,0 mm W-NW 300 0,0 km/h (0 Bft)
11.06.2017 04:25 9,4 C 91 % 1021,7 hPa 0,0 mm W-NW 300 0,0 km/h (0 Bft)
11.06.2017 04:30 9,3 C 91 % 1021,7 hPa 0,0 mm W-NW 300 0,0 km/h (0 Bft)
11.06.2017 04:35 9,2 C 91 % 1021,8 hPa 0,0 mm W-NW 300 0,0 km/h (0 Bft)
11.06.2017 04:40 9,1 C 92 % 1021,8 hPa 0,0 mm W-NW 300 0,0 km/h (0 Bft)
11.06.2017 04:45 8,9 C 92 % 1021,9 hPa 0,0 mm W-NW 300 1,6 km/h (1 Bft)
11.06.2017 04:50 9,1 C 92 % 1021,8 hPa 0,0 mm W-NW 300 0,0 km/h (0 Bft)
11.06.2017 04:55 9,2 C 92 % 1021,9 hPa 0,0 mm W-NW 300 0,0 km/h (0 Bft)
11.06.2017 05:00 9,1 C 92 % 1021,9 hPa 0,0 mm W-NW 300 0,0 km/h (0 Bft)
11.06.2017 05:05 9,1 C 92 % 1021,9 hPa 0,0 mm W-NW 300 1,6 km/h (1 Bft)
11.06.2017 05:10 9,1 C 92 % 1021,9 hPa 0,0 mm W-NW 300 1,6 km/h (1 Bft)
11.06.2017 05:15 9,2 C 92 % 1021,9 hPa 0,0 mm W-NW 300 0,0 km/h (0 Bft)
11.06.2017 05:20 9,3 C 92 % 1022,0 hPa 0,0 mm W-NW 300 1,6 km/h (1 Bft)
11.06.2017 05:25 9,3 C 92 % 1021,9 hPa 0,0 mm W-NW 300 1,6 km/h (1 Bft)
11.06.2017 05:30 9,3 C 92 % 1022,0 hPa 0,0 mm W-NW 300 1,6 km/h (1 Bft)
11.06.2017 05:35 9,4 C 92 % 1022,0 hPa 0,0 mm W-NW 300 1,6 km/h (1 Bft)
11.06.2017 05:40 9,3 C 92 % 1022,0 hPa 0,0 mm W-NW 300 1,6 km/h (1 Bft)
11.06.2017 05:45 9,4 C 92 % 1022,0 hPa 0,0 mm W-NW 300 1,6 km/h (1 Bft)
11.06.2017 05:50 9,6 C 92 % 1022,0 hPa 0,0 mm W-NW 300 1,6 km/h (1 Bft)
11.06.2017 05:55 9,8 C 92 % 1022,0 hPa 0,0 mm W-NW 300 0,0 km/h (0 Bft)
11.06.2017 06:00 10,2 C 92 % 1022,0 hPa 0,0 mm W-NW 300 3,2 km/h (1 Bft)
11.06.2017 06:05 10,6 C 92 % 1022,0 hPa 0,0 mm W-NW 300 1,6 km/h (1 Bft)
11.06.2017 06:10 10,8 C 91 % 1022,1 hPa 0,0 mm W-NW 300 0,0 km/h (0 Bft)
11.06.2017 06:15 10,8 C 90 % 1022,0 hPa 0,0 mm W-NW 300 0,0 km/h (0 Bft)
11.06.2017 06:20 10,7 C 90 % 1022,0 hPa 0,0 mm W-NW 300 0,0 km/h (0 Bft)
11.06.2017 06:25 11,4 C 91 % 1022,0 hPa 0,0 mm W-NW 300 1,6 km/h (1 Bft)
11.06.2017 06:30 12,2 C 90 % 1021,9 hPa 0,0 mm W-NW 300 1,6 km/h (1 Bft)
11.06.2017 06:35 12,6 C 86 % 1022,0 hPa 0,0 mm W-NW 300 1,6 km/h (1 Bft)
11.06.2017 06:40 12,8 C 85 % 1022,0 hPa 0,0 mm W-NW 300 0,0 km/h (0 Bft)
11.06.2017 06:45 13,2 C 84 % 1022,0 hPa 0,0 mm W-NW 300 0,0 km/h (0 Bft)
11.06.2017 06:50 13,0 C 84 % 1021,9 hPa 0,0 mm W-NW 300 0,0 km/h (0 Bft)
11.06.2017 06:55 12,8 C 86 % 1021,9 hPa 0,0 mm W-NW 300 0,0 km/h (0 Bft)
11.06.2017 07:00 12,9 C 86 % 1022,0 hPa 0,0 mm W-NW 300 0,0 km/h (0 Bft)
11.06.2017 07:05 13,2 C 86 % 1021,9 hPa 0,0 mm W-NW 300 0,0 km/h (0 Bft)
11.06.2017 07:10 13,1 C 86 % 1021,9 hPa 0,0 mm W-NW 300 0,0 km/h (0 Bft)
11.06.2017 07:15 13,3 C 86 % 1022,0 hPa 0,0 mm W-NW 300 0,0 km/h (0 Bft)
11.06.2017 07:20 13,9 C 84 % 1022,0 hPa 0,0 mm W-NW 300 0,0 km/h (0 Bft)
11.06.2017 07:25 14,1 C 82 % 1021,9 hPa 0,0 mm W-NW 300 0,0 km/h (0 Bft)
11.06.2017 07:30 14,2 C 83 % 1021,9 hPa 0,0 mm W-NW 300 0,0 km/h (0 Bft)
11.06.2017 07:35 14,6 C 83 % 1021,9 hPa 0,0 mm W-NW 300 0,0 km/h (0 Bft)
11.06.2017 07:40 15,2 C 80 % 1021,9 hPa 0,0 mm W-NW 300 0,0 km/h (0 Bft)
11.06.2017 07:45 15,4 C 80 % 1021,8 hPa 0,0 mm W-NW 300 1,6 km/h (1 Bft)
11.06.2017 07:50 15,3 C 81 % 1021,9 hPa 0,0 mm W-NW 301 3,2 km/h (1 Bft)
11.06.2017 07:55 15,2 C 80 % 1021,8 hPa 0,0 mm W-NW 301 3,2 km/h (1 Bft)
11.06.2017 08:00 15,4 C 80 % 1021,7 hPa 0,0 mm W-NW 302 1,6 km/h (1 Bft)
11.06.2017 08:05 16,0 C 78 % 1021,7 hPa 0,0 mm W-NW 302 0,0 km/h (0 Bft)
11.06.2017 08:10 16,0 C 79 % 1021,8 hPa 0,0 mm W-NW 302 1,6 km/h (1 Bft)
11.06.2017 08:15 16,2 C 79 % 1021,7 hPa 0,0 mm NW 305 1,6 km/h (1 Bft)
11.06.2017 08:20 16,4 C 79 % 1021,8 hPa 0,0 mm O-SO 109 4,8 km/h (1 Bft)
11.06.2017 08:25 16,6 C 80 % 1021,7 hPa 0,0 mm O-SO 109 3,2 km/h (1 Bft)
11.06.2017 08:30 16,8 C 80 % 1021,7 hPa 0,0 mm O-NO 78 4,8 km/h (1 Bft)
11.06.2017 08:35 16,9 C 80 % 1021,6 hPa 0,0 mm O 95 4,8 km/h (1 Bft)
11.06.2017 08:40 17,1 C 81 % 1021,6 hPa 0,0 mm O-SO 111 4,8 km/h (1 Bft)
11.06.2017 08:45 17,3 C 78 % 1021,6 hPa 0,0 mm SO 144 6,4 km/h (2 Bft)
11.06.2017 08:50 17,4 C 78 % 1021,6 hPa 0,0 mm O-SO 113 8,0 km/h (2 Bft)
11.06.2017 08:55 17,8 C 77 % 1021,6 hPa 0,0 mm SO 139 4,8 km/h (1 Bft)
11.06.2017 09:00 17,9 C 78 % 1021,6 hPa 0,0 mm O 86 8,0 km/h (2 Bft)
11.06.2017 09:05 18,2 C 75 % 1021,6 hPa 0,0 mm S-SO 164 6,4 km/h (2 Bft)
11.06.2017 09:10 18,2 C 76 % 1021,5 hPa 0,0 mm O-SO 113 4,8 km/h (1 Bft)
11.06.2017 09:15 18,4 C 77 % 1021,5 hPa 0,0 mm O-SO 121 6,4 km/h (2 Bft)
11.06.2017 09:20 18,7 C 72 % 1021,5 hPa 0,0 mm SO 131 4,8 km/h (1 Bft)
11.06.2017 09:25 19,0 C 71 % 1021,4 hPa 0,0 mm O-SO 123 3,2 km/h (1 Bft)
11.06.2017 09:30 19,1 C 72 % 1021,4 hPa 0,0 mm O-SO 123 4,8 km/h (1 Bft)
11.06.2017 09:35 19,6 C 72 % 1021,3 hPa 0,0 mm O-NO 73 8,0 km/h (2 Bft)
11.06.2017 09:40 19,6 C 70 % 1021,3 hPa 0,0 mm O 94 8,0 km/h (2 Bft)
11.06.2017 09:45 19,8 C 70 % 1021,2 hPa 0,0 mm O 83 8,0 km/h (2 Bft)
11.06.2017 09:50 20,0 C 71 % 1021,3 hPa 0,0 mm O-NO 78 8,0 km/h (2 Bft)
11.06.2017 09:55 20,2 C 72 % 1021,2 hPa 0,0 mm O 84 6,4 km/h (2 Bft)
11.06.2017 10:00 20,4 C 64 % 1021,2 hPa 0,0 mm O-NO 78 8,0 km/h (2 Bft)
11.06.2017 10:05 20,6 C 63 % 1021,1 hPa 0,0 mm O 90 8,0 km/h (2 Bft)
11.06.2017 10:10 20,6 C 62 % 1021,1 hPa 0,0 mm SO 136 8,0 km/h (2 Bft)
11.06.2017 10:15 20,8 C 66 % 1021,2 hPa 0,0 mm O-SO 119 8,0 km/h (2 Bft)
11.06.2017 10:20 20,9 C 66 % 1021,1 hPa 0,0 mm O-SO 120 6,4 km/h (2 Bft)
11.06.2017 10:25 21,1 C 61 % 1021,1 hPa 0,0 mm SO 125 8,0 km/h (2 Bft)
11.06.2017 10:30 21,1 C 59 % 1021,0 hPa 0,0 mm SO 146 6,4 km/h (2 Bft)
11.06.2017 10:35 21,4 C 56 % 1020,9 hPa 0,0 mm S-SO 151 4,8 km/h (1 Bft)
11.06.2017 10:40 21,5 C 58 % 1020,9 hPa 0,0 mm O-SO 102 8,0 km/h (2 Bft)
11.06.2017 10:45 21,5 C 56 % 1021,0 hPa 0,0 mm O-SO 109 4,8 km/h (1 Bft)
11.06.2017 10:50 21,8 C 62 % 1020,9 hPa 0,0 mm O-SO 117 6,4 km/h (2 Bft)
11.06.2017 10:55 21,9 C 49 % 1020,8 hPa 0,0 mm O-SO 121 6,4 km/h (2 Bft)
11.06.2017 11:00 21,9 C 51 % 1020,9 hPa 0,0 mm O-SO 107 6,4 km/h (2 Bft)
11.06.2017 11:05 22,0 C 55 % 1020,8 hPa 0,0 mm O 96 6,4 km/h (2 Bft)
11.06.2017 11:10 22,2 C 53 % 1020,8 hPa 0,0 mm O-SO 109 6,4 km/h (2 Bft)
11.06.2017 11:15 22,2 C 49 % 1020,8 hPa 0,0 mm O-SO 110 4,8 km/h (1 Bft)
11.06.2017 11:20 22,1 C 46 % 1020,7 hPa 0,0 mm SO 135 8,0 km/h (2 Bft)
11.06.2017 11:25 22,4 C 53 % 1020,6 hPa 0,0 mm SO 125 6,4 km/h (2 Bft)
11.06.2017 11:30 22,4 C 53 % 1020,6 hPa 0,0 mm S-SO 155 4,8 km/h (1 Bft)
11.06.2017 11:35 22,6 C 54 % 1020,5 hPa 0,0 mm SO 130 6,4 km/h (2 Bft)
11.06.2017 11:40 22,7 C 54 % 1020,5 hPa 0,0 mm O 101 6,4 km/h (2 Bft)
11.06.2017 11:45 22,7 C 52 % 1020,4 hPa 0,0 mm S-SO 152 6,4 km/h (2 Bft)
11.06.2017 11:50 22,9 C 51 % 1020,3 hPa 0,0 mm O 95 8,0 km/h (2 Bft)
11.06.2017 11:55 22,9 C 52 % 1020,3 hPa 0,0 mm O-NO 67 8,0 km/h (2 Bft)
11.06.2017 12:00 23,4 C 49 % 1020,1 hPa 0,0 mm O 94 8,0 km/h (2 Bft)
11.06.2017 12:05 23,2 C 51 % 1020,1 hPa 0,0 mm O-SO 121 8,0 km/h (2 Bft)
11.06.2017 12:10 23,1 C 55 % 1020,1 hPa 0,0 mm O 85 8,0 km/h (2 Bft)
11.06.2017 12:15 23,2 C 48 % 1020,0 hPa 0,0 mm S-SO 150 8,0 km/h (2 Bft)
11.06.2017 12:20 23,2 C 50 % 1020,1 hPa 0,0 mm SO 144 8,0 km/h (2 Bft)
11.06.2017 12:25 23,3 C 52 % 1019,9 hPa 0,0 mm O-NO 74 6,4 km/h (2 Bft)
11.06.2017 12:30 23,4 C 44 % 1019,9 hPa 0,0 mm O-SO 103 6,4 km/h (2 Bft)
11.06.2017 12:35 23,5 C 45 % 1019,9 hPa 0,0 mm S-SO 154 6,4 km/h (2 Bft)
11.06.2017 12:40 23,5 C 49 % 1019,8 hPa 0,0 mm S-SO 150 6,4 km/h (2 Bft)
11.06.2017 12:45 23,6 C 47 % 1019,8 hPa 0,0 mm O 84 9,7 km/h (2 Bft)
11.06.2017 12:50 23,6 C 54 % 1019,8 hPa 0,0 mm O 88 9,7 km/h (2 Bft)
11.06.2017 12:55 23,7 C 50 % 1019,8 hPa 0,0 mm SO 132 4,8 km/h (1 Bft)
11.06.2017 13:00 23,7 C 49 % 1019,7 hPa 0,0 mm O 98 8,0 km/h (2 Bft)
11.06.2017 13:05 23,8 C 46 % 1019,7 hPa 0,0 mm S-SO 157 4,8 km/h (1 Bft)
11.06.2017 13:10 23,9 C 46 % 1019,6 hPa 0,0 mm O 83 6,4 km/h (2 Bft)
11.06.2017 13:15 23,9 C 53 % 1019,5 hPa 0,0 mm SO 145 6,4 km/h (2 Bft)
11.06.2017 13:20 24,0 C 49 % 1019,4 hPa 0,0 mm O-SO 111 6,4 km/h (2 Bft)
11.06.2017 13:25 24,1 C 55 % 1019,5 hPa 0,0 mm O 93 4,8 km/h (1 Bft)
11.06.2017 13:30 24,2 C 50 % 1019,3 hPa 0,0 mm SO 124 8,0 km/h (2 Bft)
11.06.2017 13:35 24,1 C 46 % 1019,3 hPa 0,0 mm S-SO 150 6,4 km/h (2 Bft)
11.06.2017 13:40 24,2 C 42 % 1019,2 hPa 0,0 mm S 175 6,4 km/h (2 Bft)
11.06.2017 13:45 24,2 C 45 % 1019,1 hPa 0,0 mm SO 134 6,4 km/h (2 Bft)
11.06.2017 13:50 24,4 C 58 % 1019,0 hPa 0,0 mm S-SO 155 11,3 km/h (2 Bft)
11.06.2017 13:55 24,5 C 50 % 1018,9 hPa 0,0 mm O-SO 122 3,2 km/h (1 Bft)
11.06.2017 14:00 24,4 C 43 % 1018,9 hPa 0,0 mm SO 136 6,4 km/h (2 Bft)
11.06.2017 14:05 24,4 C 50 % 1018,9 hPa 0,0 mm SO 136 3,2 km/h (1 Bft)
11.06.2017 14:10 24,4 C 50 % 1018,9 hPa 0,0 mm SO 144 3,2 km/h (1 Bft)
11.06.2017 14:15 24,5 C 50 % 1018,8 hPa 0,0 mm O-SO 115 8,0 km/h (2 Bft)
11.06.2017 14:20 24,5 C 48 % 1018,7 hPa 0,0 mm O 93 8,0 km/h (2 Bft)
11.06.2017 14:25 24,4 C 46 % 1018,7 hPa 0,0 mm S-SO 155 4,8 km/h (1 Bft)
11.06.2017 14:30 24,5 C 45 % 1018,7 hPa 0,0 mm O-SO 119 6,4 km/h (2 Bft)
11.06.2017 14:35 24,6 C 50 % 1018,6 hPa 0,0 mm S-SO 147 6,4 km/h (2 Bft)
11.06.2017 14:40 24,5 C 45 % 1018,5 hPa 0,0 mm S-SO 148 4,8 km/h (1 Bft)
11.06.2017 14:45 24,6 C 47 % 1018,5 hPa 0,0 mm SO 133 6,4 km/h (2 Bft)
11.06.2017 14:50 24,6 C 47 % 1018,5 hPa 0,0 mm SO 125 8,0 km/h (2 Bft)
11.06.2017 14:55 24,7 C 51 % 1018,5 hPa 0,0 mm SO 128 6,4 km/h (2 Bft)
11.06.2017 15:00 24,7 C 48 % 1018,4 hPa 0,0 mm O-SO 115 6,4 km/h (2 Bft)
11.06.2017 15:05 24,7 C 50 % 1018,3 hPa 0,0 mm S-SO 156 6,4 km/h (2 Bft)
11.06.2017 15:10 24,7 C 52 % 1018,1 hPa 0,0 mm NO 34 8,0 km/h (2 Bft)
11.06.2017 15:15 25,0 C 46 % 1018,0 hPa 0,0 mm O 80 8,0 km/h (2 Bft)
11.06.2017 15:20 24,8 C 51 % 1018,0 hPa 0,0 mm O-SO 114 9,7 km/h (2 Bft)
11.06.2017 15:25 24,6 C 48 % 1017,9 hPa 0,0 mm S-SO 149 8,0 km/h (2 Bft)
11.06.2017 15:30 24,7 C 49 % 1017,9 hPa 0,0 mm O 94 6,4 km/h (2 Bft)
11.06.2017 15:35 24,9 C 47 % 1017,8 hPa 0,0 mm SO 128 11,3 km/h (2 Bft)
11.06.2017 15:40 24,9 C 56 % 1017,8 hPa 0,0 mm SO 146 9,7 km/h (2 Bft)
11.06.2017 15:45 24,7 C 48 % 1017,7 hPa 0,0 mm S-SO 163 9,7 km/h (2 Bft)
11.06.2017 15:50 24,8 C 49 % 1017,6 hPa 0,0 mm O-SO 111 8,0 km/h (2 Bft)
11.06.2017 15:55 24,8 C 51 % 1017,5 hPa 0,0 mm SO 126 8,0 km/h (2 Bft)
11.06.2017 16:00 24,7 C 46 % 1017,5 hPa 0,0 mm SO 128 6,4 km/h (2 Bft)
11.06.2017 16:05 24,7 C 45 % 1017,5 hPa 0,0 mm SO 138 9,7 km/h (2 Bft)
11.06.2017 16:10 24,7 C 47 % 1017,4 hPa 0,0 mm SO 143 6,4 km/h (2 Bft)
11.06.2017 16:15 24,7 C 49 % 1017,3 hPa 0,0 mm O-SO 104 8,0 km/h (2 Bft)
11.06.2017 16:20 24,4 C 46 % 1017,3 hPa 0,0 mm O-SO 120 8,0 km/h (2 Bft)
11.06.2017 16:25 24,5 C 47 % 1017,2 hPa 0,0 mm SO 139 6,4 km/h (2 Bft)
11.06.2017 16:30 24,4 C 52 % 1017,1 hPa 0,0 mm O-SO 118 9,7 km/h (2 Bft)
11.06.2017 16:35 24,4 C 51 % 1017,0 hPa 0,0 mm O-SO 113 9,7 km/h (2 Bft)
11.06.2017 16:40 24,6 C 50 % 1016,9 hPa 0,0 mm O-SO 105 9,7 km/h (2 Bft)
11.06.2017 16:45 24,7 C 47 % 1016,9 hPa 0,0 mm O 101 8,0 km/h (2 Bft)
11.06.2017 16:50 24,6 C 48 % 1016,9 hPa 0,0 mm O-SO 119 6,4 km/h (2 Bft)
11.06.2017 16:55 24,7 C 51 % 1016,8 hPa 0,0 mm O-NO 78 6,4 km/h (2 Bft)
11.06.2017 17:00 24,7 C 50 % 1016,7 hPa 0,0 mm O 95 8,0 km/h (2 Bft)
11.06.2017 17:05 24,7 C 49 % 1016,6 hPa 0,0 mm O-NO 78 8,0 km/h (2 Bft)
11.06.2017 17:10 24,8 C 46 % 1016,6 hPa 0,0 mm O-SO 115 6,4 km/h (2 Bft)
11.06.2017 17:15 24,7 C 47 % 1016,5 hPa 0,0 mm O-SO 107 9,7 km/h (2 Bft)
11.06.2017 17:20 24,6 C 47 % 1016,4 hPa 0,0 mm O-SO 104 8,0 km/h (2 Bft)
11.06.2017 17:25 24,7 C 50 % 1016,3 hPa 0,0 mm O 83 8,0 km/h (2 Bft)
11.06.2017 17:30 24,7 C 50 % 1016,2 hPa 0,0 mm O 86 9,7 km/h (2 Bft)
11.06.2017 17:35 24,6 C 53 % 1016,1 hPa 0,0 mm O-NO 74 4,8 km/h (1 Bft)
11.06.2017 17:40 24,6 C 52 % 1016,1 hPa 0,0 mm O 81 8,0 km/h (2 Bft)
11.06.2017 17:45 24,6 C 51 % 1016,0 hPa 0,0 mm SO 134 9,7 km/h (2 Bft)
11.06.2017 17:50 24,5 C 50 % 1015,9 hPa 0,0 mm O-SO 102 8,0 km/h (2 Bft)
11.06.2017 17:55 24,3 C 50 % 1015,9 hPa 0,0 mm O-NO 77 8,0 km/h (2 Bft)
11.06.2017 18:00 23,9 C 50 % 1015,9 hPa 0,0 mm O-NO 72 8,0 km/h (2 Bft)
11.06.2017 18:05 23,8 C 51 % 1015,9 hPa 0,0 mm O 87 8,0 km/h (2 Bft)
11.06.2017 18:10 23,9 C 51 % 1015,8 hPa 0,0 mm O 100 11,3 km/h (2 Bft)
11.06.2017 18:15 23,9 C 52 % 1015,8 hPa 0,0 mm O-NO 78 6,4 km/h (2 Bft)
11.06.2017 18:20 23,9 C 52 % 1015,8 hPa 0,0 mm O 87 8,0 km/h (2 Bft)
11.06.2017 18:25 23,9 C 54 % 1015,7 hPa 0,0 mm O-NO 64 4,8 km/h (1 Bft)
11.06.2017 18:30 23,9 C 54 % 1015,6 hPa 0,0 mm NO 55 8,0 km/h (2 Bft)
11.06.2017 18:35 23,9 C 55 % 1015,6 hPa 0,0 mm O 98 6,4 km/h (2 Bft)
11.06.2017 18:40 23,8 C 52 % 1015,4 hPa 0,0 mm O 83 8,0 km/h (2 Bft)
11.06.2017 18:45 23,7 C 53 % 1015,5 hPa 0,0 mm O-NO 72 6,4 km/h (2 Bft)
11.06.2017 18:50 23,7 C 54 % 1015,5 hPa 0,0 mm NO 49 6,4 km/h (2 Bft)
11.06.2017 18:55 23,7 C 53 % 1015,4 hPa 0,0 mm NO 44 9,7 km/h (2 Bft)
11.06.2017 19:00 23,6 C 52 % 1015,3 hPa 0,0 mm NO 50 8,0 km/h (2 Bft)
11.06.2017 19:05 23,6 C 54 % 1015,3 hPa 0,0 mm O-NO 70 8,0 km/h (2 Bft)
11.06.2017 19:10 23,5 C 53 % 1015,3 hPa 0,0 mm NO 44 8,0 km/h (2 Bft)
11.06.2017 19:15 23,5 C 54 % 1015,4 hPa 0,0 mm O-NO 75 9,7 km/h (2 Bft)
11.06.2017 19:20 23,3 C 53 % 1015,3 hPa 0,0 mm O-NO 72 9,7 km/h (2 Bft)
11.06.2017 19:25 23,1 C 54 % 1015,3 hPa 0,0 mm O-NO 61 6,4 km/h (2 Bft)
11.06.2017 19:30 23,1 C 54 % 1015,2 hPa 0,0 mm NO 54 6,4 km/h (2 Bft)
11.06.2017 19:35 22,8 C 57 % 1015,2 hPa 0,0 mm O 83 4,8 km/h (1 Bft)
11.06.2017 19:40 22,6 C 57 % 1015,2 hPa 0,0 mm O 90 6,4 km/h (2 Bft)
11.06.2017 19:45 22,4 C 58 % 1015,2 hPa 0,0 mm O 86 4,8 km/h (1 Bft)
11.06.2017 19:50 22,3 C 57 % 1015,2 hPa 0,0 mm O-NO 72 4,8 km/h (1 Bft)
11.06.2017 19:55 22,2 C 58 % 1015,1 hPa 0,0 mm NO 51 3,2 km/h (1 Bft)
11.06.2017 20:00 21,9 C 58 % 1015,2 hPa 0,0 mm NO 53 3,2 km/h (1 Bft)
11.06.2017 20:05 21,7 C 61 % 1015,2 hPa 0,0 mm O-NO 58 1,6 km/h (1 Bft)
11.06.2017 20:10 21,4 C 63 % 1015,2 hPa 0,0 mm O-NO 58 1,6 km/h (1 Bft)
11.06.2017 20:15 21,3 C 64 % 1015,2 hPa 0,0 mm O-NO 58 3,2 km/h (1 Bft)
11.06.2017 20:20 21,1 C 65 % 1015,2 hPa 0,0 mm O 80 3,2 km/h (1 Bft)
11.06.2017 20:25 20,8 C 66 % 1015,3 hPa 0,0 mm O 88 1,6 km/h (1 Bft)
11.06.2017 20:30 20,4 C 67 % 1015,2 hPa 0,0 mm O 88 1,6 km/h (1 Bft)
11.06.2017 20:35 20,3 C 66 % 1015,3 hPa 0,0 mm O 88 0,0 km/h (0 Bft)
11.06.2017 20:40 20,2 C 67 % 1015,3 hPa 0,0 mm O 88 0,0 km/h (0 Bft)
11.06.2017 20:45 19,8 C 69 % 1015,3 hPa 0,0 mm O 88 0,0 km/h (0 Bft)
11.06.2017 20:50 19,4 C 69 % 1015,2 hPa 0,0 mm O 88 0,0 km/h (0 Bft)
11.06.2017 20:55 19,2 C 70 % 1015,2 hPa 0,0 mm O 88 0,0 km/h (0 Bft)
11.06.2017 21:00 19,2 C 70 % 1015,2 hPa 0,0 mm O 88 0,0 km/h (0 Bft)
11.06.2017 21:05 19,1 C 70 % 1015,3 hPa 0,0 mm O 88 0,0 km/h (0 Bft)
11.06.2017 21:10 18,4 C 72 % 1015,2 hPa 0,0 mm O 88 0,0 km/h (0 Bft)
11.06.2017 21:15 18,1 C 74 % 1015,2 hPa 0,0 mm O 88 0,0 km/h (0 Bft)
11.06.2017 21:20 17,9 C 74 % 1015,3 hPa 0,0 mm O 88 0,0 km/h (0 Bft)
11.06.2017 21:25 17,8 C 75 % 1015,4 hPa 0,0 mm O 88 0,0 km/h (0 Bft)
11.06.2017 21:30 17,7 C 75 % 1015,4 hPa 0,0 mm O 88 0,0 km/h (0 Bft)
11.06.2017 21:35 17,6 C 75 % 1015,5 hPa 0,0 mm O 88 0,0 km/h (0 Bft)
11.06.2017 21:40 17,4 C 76 % 1015,5 hPa 0,0 mm O 88 0,0 km/h (0 Bft)
11.06.2017 21:45 17,2 C 77 % 1015,5 hPa 0,0 mm O 88 0,0 km/h (0 Bft)
11.06.2017 21:50 17,2 C 77 % 1015,5 hPa 0,0 mm O 88 0,0 km/h (0 Bft)
11.06.2017 21:55 16,8 C 78 % 1015,6 hPa 0,0 mm O 88 0,0 km/h (0 Bft)
11.06.2017 22:00 16,4 C 80 % 1015,6 hPa 0,0 mm O 88 0,0 km/h (0 Bft)
11.06.2017 22:05 16,4 C 80 % 1015,6 hPa 0,0 mm O 88 0,0 km/h (0 Bft)
11.06.2017 22:10 16,3 C 80 % 1015,6 hPa 0,0 mm O 88 0,0 km/h (0 Bft)
11.06.2017 22:15 16,2 C 80 % 1015,7 hPa 0,0 mm O 88 0,0 km/h (0 Bft)
11.06.2017 22:20 15,9 C 81 % 1015,7 hPa 0,0 mm O 88 0,0 km/h (0 Bft)
11.06.2017 22:25 15,8 C 83 % 1015,7 hPa 0,0 mm O 88 0,0 km/h (0 Bft)
11.06.2017 22:30 15,7 C 83 % 1015,6 hPa 0,0 mm O 88 0,0 km/h (0 Bft)
11.06.2017 22:35 15,3 C 83 % 1015,6 hPa 0,0 mm O 88 0,0 km/h (0 Bft)
11.06.2017 22:40 15,3 C 84 % 1015,6 hPa 0,0 mm O 88 0,0 km/h (0 Bft)
11.06.2017 22:45 15,3 C 84 % 1015,5 hPa 0,0 mm O 88 0,0 km/h (0 Bft)
11.06.2017 22:50 15,2 C 84 % 1015,5 hPa 0,0 mm O 88 0,0 km/h (0 Bft)
11.06.2017 22:55 15,1 C 85 % 1015,4 hPa 0,0 mm O 88 0,0 km/h (0 Bft)
11.06.2017 23:00 14,9 C 85 % 1015,4 hPa 0,0 mm O 88 0,0 km/h (0 Bft)
11.06.2017 23:05 14,8 C 85 % 1015,3 hPa 0,0 mm O 88 0,0 km/h (0 Bft)
11.06.2017 23:10 14,7 C 86 % 1015,3 hPa 0,0 mm O 88 0,0 km/h (0 Bft)
11.06.2017 23:15 14,6 C 86 % 1015,3 hPa 0,0 mm O 88 0,0 km/h (0 Bft)
11.06.2017 23:20 14,6 C 87 % 1015,3 hPa 0,0 mm O 88 0,0 km/h (0 Bft)
11.06.2017 23:25 14,4 C 86 % 1015,3 hPa 0,0 mm O 88 0,0 km/h (0 Bft)
11.06.2017 23:30 14,3 C 87 % 1015,3 hPa 0,0 mm O 88 0,0 km/h (0 Bft)
11.06.2017 23:35 14,3 C 87 % 1015,2 hPa 0,0 mm O 88 0,0 km/h (0 Bft)
11.06.2017 23:40 14,2 C 87 % 1015,1 hPa 0,0 mm O 88 0,0 km/h (0 Bft)
11.06.2017 23:45 14,1 C 87 % 1015,1 hPa 0,0 mm O 88 0,0 km/h (0 Bft)
11.06.2017 23:50 14,1 C 88 % 1015,0 hPa 0,0 mm O 88 0,0 km/h (0 Bft)
11.06.2017 23:55 14,1 C 88 % 1015,0 hPa 0,0 mm O 88 0,0 km/h (0 Bft)
_ Min-Zeit 04:45 13:40 23:50 - - - 00:00
Minimum _ 8,9 C 42 % 1015,0 hPa - - - 0,0 km/h (0 Bft)
_ Max-Zeit 15:15 04:05 06:10 00:00 - - 13:50
Maximum _ 25,0 C 92 % 1022,1 hPa 0,0 mm - - 11,3 km/h
O-SO (2 Bft)
Durchschnitt _ 17,9 C 70 % 1019,2 hPa #0,0 mm O - 3,9 km/h (1 Bft)